Time,TemperatureF,DewpointF,PressureIn,WindDirection,WindDirectionDegrees,WindSpeedMPH,WindSpeedGustMPH,Humidity,HourlyPrecipIn,Conditions,Clouds,dailyrainin,SoftwareType,DateUTC
2013-01-27 00:09:00,51.3,51.0,30.08,SE,135,0.0,-999.0,99,-99.99,,,0.00,Acu-Link.com,2013-01-27 05:09:00,
2013-01-27 00:25:00,49.6,49.3,30.07,SE,135,0.0,-999.0,99,-99.99,,,0.00,Acu-Link.com,2013-01-27 05:25:00,
2013-01-27 00:40:00,49.1,48.6,30.09,SE,135,0.0,-999.0,98,-99.99,,,0.00,Acu-Link.com,2013-01-27 05:40:00,
2013-01-27 00:55:00,49.6,49.3,30.08,SE,135,0.0,-999.0,99,-99.99,,,0.00,Acu-Link.com,2013-01-27 05:55:00,
2013-01-27 01:10:00,48.6,48.1,30.08,SE,135,0.0,-999.0,98,-99.99,,,0.00,Acu-Link.com,2013-01-27 06:10:00,
2013-01-27 01:26:00,48.6,48.1,30.08,SE,135,0.0,-999.0,98,-99.99,,,0.00,Acu-Link.com,2013-01-27 06:26:00,
2013-01-27 01:41:00,48.0,46.9,30.08,SE,135,0.0,-999.0,96,-99.99,,,0.00,Acu-Link.com,2013-01-27 06:41:00,
2013-01-27 01:56:00,47.7,46.6,30.08,SE,135,0.0,-999.0,96,-99.99,,,0.00,Acu-Link.com,2013-01-27 06:56:00,
2013-01-27 02:27:00,47.5,46.1,30.08,SE,135,0.0,-999.0,95,-99.99,,,0.00,Acu-Link.com,2013-01-27 07:27:00,
2013-01-27 02:42:00,48.0,47.5,30.08,SE,135,0.0,-999.0,98,-99.99,,,0.00,Acu-Link.com,2013-01-27 07:42:00,
2013-01-27 02:58:00,49.8,49.5,30.09,West,270,0.0,-999.0,99,-99.99,,,0.00,Acu-Link.com,2013-01-27 07:58:00,
2013-01-27 03:13:00,49.1,48.8,30.08,SSW,202,0.0,-999.0,99,-99.99,,,0.00,Acu-Link.com,2013-01-27 08:13:00,
2013-01-27 03:28:00,49.6,49.3,30.08,SSW,202,0.0,-999.0,99,-99.99,,,0.00,Acu-Link.com,2013-01-27 08:28:00,
2013-01-27 03:43:00,49.1,48.8,30.08,South,180,0.0,-999.0,99,-99.99,,,0.00,Acu-Link.com,2013-01-27 08:43:00,
2013-01-27 03:59:00,49.3,49.0,30.08,South,180,0.0,-999.0,99,-99.99,,,0.00,Acu-Link.com,2013-01-27 08:59:00,
2013-01-27 04:16:00,48.9,48.6,30.08,South,180,0.0,-999.0,99,-99.99,,,0.00,Acu-Link.com,2013-01-27 09:16:00,
2013-01-27 04:31:00,48.9,48.6,30.08,South,180,0.0,-999.0,99,-99.99,,,0.00,Acu-Link.com,2013-01-27 09:31:00,
2013-01-27 04:46:00,48.4,47.9,30.09,South,180,0.0,-999.0,98,-99.99,,,0.00,Acu-Link.com,2013-01-27 09:46:00,
2013-01-27 05:02:00,48.2,47.9,30.09,South,180,0.0,-999.0,99,-99.99,,,0.00,Acu-Link.com,2013-01-27 10:02:00,
2013-01-27 05:17:00,48.2,47.9,30.09,South,180,0.0,-999.0,99,-99.99,,,0.00,Acu-Link.com,2013-01-27 10:17:00,
2013-01-27 05:32:00,47.8,47.3,30.10,South,180,0.0,-999.0,98,-99.99,,,0.00,Acu-Link.com,2013-01-27 10:32:00,
2013-01-27 05:47:00,48.4,48.1,30.10,SSE,157,0.0,-999.0,99,-99.99,,,0.00,Acu-Link.com,2013-01-27 10:47:00,
2013-01-27 06:03:00,48.9,48.6,30.10,SSE,157,0.0,-999.0,99,-99.99,,,0.00,Acu-Link.com,2013-01-27 11:03:00,
2013-01-27 06:18:00,49.6,49.3,30.11,SSE,157,0.0,-999.0,99,-99.99,,,0.00,Acu-Link.com,2013-01-27 11:18:00,
2013-01-27 06:33:00,49.8,49.5,30.12,SSE,157,0.0,-999.0,99,-99.99,,,0.00,Acu-Link.com,2013-01-27 11:33:00,
2013-01-27 06:49:00,49.5,49.0,30.12,SSE,157,0.0,-999.0,98,-99.99,,,0.00,Acu-Link.com,2013-01-27 11:49:00,
2013-01-27 07:04:00,49.5,49.0,30.12,SSE,157,0.0,-999.0,98,-99.99,,,0.00,Acu-Link.com,2013-01-27 12:04:00,
2013-01-27 07:19:00,49.1,48.6,30.13,SSE,157,0.0,-999.0,98,-99.99,,,0.00,Acu-Link.com,2013-01-27 12:19:00,
2013-01-27 07:34:00,49.3,48.8,30.13,SSE,157,0.0,-999.0,98,-99.99,,,0.00,Acu-Link.com,2013-01-27 12:34:00,
2013-01-27 07:50:00,50.2,49.9,30.12,SE,135,0.0,-999.0,99,-99.99,,,0.00,Acu-Link.com,2013-01-27 12:50:00,
2013-01-27 08:05:00,56.5,56.2,30.14,SE,135,0.0,-999.0,99,-99.99,,,0.00,Acu-Link.com,2013-01-27 13:05:00,
2013-01-27 08:20:00,58.6,58.0,30.14,SW,225,0.0,-999.0,98,-99.99,,,0.00,Acu-Link.com,2013-01-27 13:20:00,
2013-01-27 08:36:00,60.4,59.3,30.14,South,180,0.0,-999.0,96,-99.99,,,0.00,Acu-Link.com,2013-01-27 13:36:00,
2013-01-27 08:51:00,62.1,59.7,30.15,SW,225,0.0,-999.0,92,-99.99,,,0.00,Acu-Link.com,2013-01-27 13:51:00,
2013-01-27 09:06:00,64.9,60.9,30.15,NNW,337,0.0,-999.0,87,-99.99,,,0.00,Acu-Link.com,2013-01-27 14:06:00,
2013-01-27 09:22:00,67.1,62.4,30.16,South,180,0.0,-999.0,85,-99.99,,,0.00,Acu-Link.com,2013-01-27 14:22:00,
2013-01-27 09:37:00,68.5,61.7,30.16,NNW,337,0.0,-999.0,79,-99.99,,,0.00,Acu-Link.com,2013-01-27 14:37:00,
2013-01-27 09:52:00,70.7,63.1,30.16,SE,135,0.0,-999.0,77,-99.99,,,0.00,Acu-Link.com,2013-01-27 14:52:00,
2013-01-27 10:07:00,70.7,61.6,30.16,SE,135,2.7,-999.0,73,-99.99,,,0.00,Acu-Link.com,2013-01-27 15:07:00,
2013-01-27 10:23:00,72.5,61.3,30.16,SW,225,0.0,-999.0,68,-99.99,,,0.00,Acu-Link.com,2013-01-27 15:23:00,
2013-01-27 10:38:00,74.3,61.3,30.16,East,90,0.0,-999.0,64,-99.99,,,0.00,Acu-Link.com,2013-01-27 15:38:00,
2013-01-27 10:53:00,75.7,59.9,30.16,East,90,2.7,-999.0,58,-99.99,,,0.00,Acu-Link.com,2013-01-27 15:53:00,
2013-01-27 11:09:00,75.2,59.9,30.16,ESE,112,2.2,-999.0,59,-99.99,,,0.00,Acu-Link.com,2013-01-27 16:09:00,
2013-01-27 11:24:00,75.9,61.0,30.17,ESE,112,5.3,-999.0,60,-99.99,,,0.00,Acu-Link.com,2013-01-27 16:24:00,
2013-01-27 11:39:00,76.1,60.2,30.16,ENE,67,3.2,-999.0,58,-99.99,,,0.00,Acu-Link.com,2013-01-27 16:39:00,
2013-01-27 11:55:00,76.8,61.8,30.15,ESE,112,0.0,-999.0,60,-99.99,,,0.00,Acu-Link.com,2013-01-27 16:55:00,
2013-01-27 12:10:00,78.3,60.3,30.15,SE,135,4.7,-999.0,54,-99.99,,,0.00,Acu-Link.com,2013-01-27 17:10:00,
2013-01-27 12:25:00,78.1,60.1,30.14,NE,45,2.7,-999.0,54,-99.99,,,0.00,Acu-Link.com,2013-01-27 17:25:00,
2013-01-27 12:41:00,79.7,61.0,30.13,East,90,1.7,-999.0,53,-99.99,,,0.00,Acu-Link.com,2013-01-27 17:41:00,
2013-01-27 12:56:00,78.3,59.7,30.12,WNW,292,0.0,-999.0,53,-99.99,,,0.00,Acu-Link.com,2013-01-27 17:56:00,
2013-01-27 13:11:00,79.7,58.8,30.12,SE,135,1.7,-999.0,49,-99.99,,,0.00,Acu-Link.com,2013-01-27 18:11:00,
2013-01-27 13:26:00,78.4,58.8,30.10,ESE,112,6.3,-999.0,51,-99.99,,,0.00,Acu-Link.com,2013-01-27 18:26:00,
2013-01-27 13:42:00,79.2,59.5,30.11,East,90,5.3,-999.0,51,-99.99,,,0.00,Acu-Link.com,2013-01-27 18:42:00,
2013-01-27 13:57:00,79.2,59.5,30.10,ESE,112,1.7,-999.0,51,-99.99,,,0.00,Acu-Link.com,2013-01-27 18:57:00,
2013-01-27 14:12:00,77.9,58.3,30.09,ESE,112,6.3,-999.0,51,-99.99,,,0.00,Acu-Link.com,2013-01-27 19:12:00,
2013-01-27 14:28:00,78.4,59.3,30.10,ESE,112,2.2,-999.0,52,-99.99,,,0.00,Acu-Link.com,2013-01-27 19:28:00,
2013-01-27 14:43:00,77.9,58.8,30.09,East,90,2.2,-999.0,52,-99.99,,,0.00,Acu-Link.com,2013-01-27 19:43:00,
2013-01-27 14:58:00,78.8,59.1,30.08,East,90,1.7,-999.0,51,-99.99,,,0.00,Acu-Link.com,2013-01-27 19:58:00,
2013-01-27 15:14:00,78.3,59.2,30.08,ESE,112,5.3,-999.0,52,-99.99,,,0.00,Acu-Link.com,2013-01-27 20:14:00,
2013-01-27 15:29:00,77.0,59.1,30.08,ESE,112,2.2,-999.0,54,-99.99,,,0.00,Acu-Link.com,2013-01-27 20:29:00,
2013-01-27 15:44:00,76.5,59.1,30.08,ESE,112,2.2,-999.0,55,-99.99,,,0.00,Acu-Link.com,2013-01-27 20:44:00,
2013-01-27 15:59:00,76.8,59.4,30.08,SSE,157,0.0,-999.0,55,-99.99,,,0.00,Acu-Link.com,2013-01-27 20:59:00,
2013-01-27 16:15:00,75.4,60.1,30.08,ESE,112,2.2,-999.0,59,-99.99,,,0.00,Acu-Link.com,2013-01-27 21:15:00,
2013-01-27 16:30:00,75.4,60.5,30.08,East,90,4.2,-999.0,60,-99.99,,,0.00,Acu-Link.com,2013-01-27 21:30:00,
2013-01-27 16:45:00,74.8,59.5,30.09,ESE,112,1.1,-999.0,59,-99.99,,,0.00,Acu-Link.com,2013-01-27 21:45:00,
2013-01-27 17:01:00,73.6,60.2,30.10,SE,135,0.0,-999.0,63,-99.99,,,0.00,Acu-Link.com,2013-01-27 22:01:00,
2013-01-27 17:16:00,72.1,60.1,30.09,South,180,0.0,-999.0,66,-99.99,,,0.00,Acu-Link.com,2013-01-27 22:16:00,
2013-01-27 17:31:00,72.9,60.9,30.11,NNW,337,0.0,-999.0,66,-99.99,,,0.00,Acu-Link.com,2013-01-27 22:31:00,
2013-01-27 17:47:00,71.4,61.5,30.10,East,90,0.0,-999.0,71,-99.99,,,0.00,Acu-Link.com,2013-01-27 22:47:00,
2013-01-27 18:02:00,70.2,61.5,30.10,ESE,112,0.0,-999.0,74,-99.99,,,0.00,Acu-Link.com,2013-01-27 23:02:00,
2013-01-27 18:17:00,68.0,61.2,30.10,East,90,0.0,-999.0,79,-99.99,,,0.00,Acu-Link.com,2013-01-27 23:17:00,
2013-01-27 18:32:00,66.2,60.9,30.11,SW,225,0.0,-999.0,83,-99.99,,,0.00,Acu-Link.com,2013-01-27 23:32:00,
2013-01-27 18:48:00,64.9,60.3,30.12,ESE,112,0.0,-999.0,85,-99.99,,,0.00,Acu-Link.com,2013-01-27 23:48:00,
2013-01-27 19:03:00,63.7,60.7,30.12,West,270,0.0,-999.0,90,-99.99,,,0.00,Acu-Link.com,2013-01-28 00:03:00,
2013-01-27 19:18:00,63.0,60.0,30.12,SE,135,0.0,-999.0,90,-99.99,,,0.00,Acu-Link.com,2013-01-28 00:18:00,
2013-01-27 19:34:00,62.2,58.6,30.12,SE,135,0.0,-999.0,88,-99.99,,,0.00,Acu-Link.com,2013-01-28 00:34:00,
2013-01-27 19:49:00,61.5,58.5,30.12,SE,135,0.0,-999.0,90,-99.99,,,0.00,Acu-Link.com,2013-01-28 00:49:00,
2013-01-27 20:04:00,61.2,58.5,30.12,SE,135,0.0,-999.0,91,-99.99,,,0.00,Acu-Link.com,2013-01-28 01:04:00,
2013-01-27 20:20:00,61.2,58.9,30.13,SE,135,0.0,-999.0,92,-99.99,,,0.00,Acu-Link.com,2013-01-28 01:20:00,
2013-01-27 20:35:00,61.3,59.3,30.14,West,270,0.0,-999.0,93,-99.99,,,0.00,Acu-Link.com,2013-01-28 01:35:00,
2013-01-27 20:50:00,61.2,59.8,30.13,South,180,0.0,-999.0,95,-99.99,,,0.00,Acu-Link.com,2013-01-28 01:50:00,
2013-01-27 21:05:00,60.8,59.4,30.13,NW,315,0.0,-999.0,95,-99.99,,,0.00,Acu-Link.com,2013-01-28 02:05:00,
2013-01-27 21:21:00,62.2,61.3,30.14,NE,45,2.2,-999.0,97,-99.99,,,0.00,Acu-Link.com,2013-01-28 02:21:00,
2013-01-27 21:36:00,65.3,64.7,30.13,SE,135,2.7,-999.0,98,-99.99,,,0.01,Acu-Link.com,2013-01-28 02:36:00,
2013-01-27 21:51:00,65.5,65.2,30.14,ESE,112,1.1,-999.0,99,-99.99,,,0.02,Acu-Link.com,2013-01-28 02:51:00,
2013-01-27 22:07:00,66.2,65.9,30.14,ENE,67,0.0,-999.0,99,-99.99,,,0.02,Acu-Link.com,2013-01-28 03:07:00,
2013-01-27 22:22:00,66.2,65.6,30.15,ESE,112,2.2,-999.0,98,-99.99,,,0.02,Acu-Link.com,2013-01-28 03:22:00,
2013-01-27 22:37:00,66.4,65.2,30.14,SE,135,1.7,-999.0,96,-99.99,,,0.02,Acu-Link.com,2013-01-28 03:37:00,
2013-01-27 22:53:00,66.6,65.4,30.15,ESE,112,2.2,-999.0,96,-99.99,,,0.03,Acu-Link.com,2013-01-28 03:53:00,
2013-01-27 23:08:00,66.9,65.1,30.14,SE,135,1.7,-999.0,94,-99.99,,,0.03,Acu-Link.com,2013-01-28 04:08:00,
2013-01-27 23:23:00,67.1,64.7,30.13,SSE,157,2.2,-999.0,92,-99.99,,,0.03,Acu-Link.com,2013-01-28 04:23:00,
2013-01-27 23:38:00,67.1,64.4,30.12,ESE,112,3.2,-999.0,91,-99.99,,,0.03,Acu-Link.com,2013-01-28 04:38:00,
2013-01-27 23:54:00,67.1,64.4,30.14,ESE,112,1.1,-999.0,91,-99.99,,,0.03,Acu-Link.com,2013-01-28 04:54:00,